Location: Gull Harbor
(47.1000°N, 122.9000°W)
Time: 10:25:19
(UTC-08:00)

Tiangong 2 - Visible Passes

Search period start: 23 January 2019 00:00
Search period end: 02 February 2019 00:00
Orbit: 380 x 392 km, 42.8° (Epoch: 23 January)

Date Brightness Start Highest point End Pass type
(mag) Time Alt. Az. Time Alt. Az. Time Alt. Az.
23 Jan 4.6 04:49:56 11° ESE 04:49:56 11° ESE 04:50:09 10° ESE visible
23 Jan 2.4 06:22:11 21° WSW 06:23:37 30° SSW 06:26:28 10° SE visible
24 Jan 3.1 05:25:54 25° SE 05:25:54 25° SE 05:27:40 10° ESE visible
24 Jan 3.2 06:58:47 10° WSW 07:01:01 18° SSW 07:03:15 10° SSE visible
25 Jan 2.6 06:01:52 23° SSW 06:02:10 24° SSW 06:04:48 10° SE visible
26 Jan 4.1 05:05:37 13° SE 05:05:37 13° SE 05:06:08 10° SE visible
26 Jan 3.6 06:38:11 10° SW 06:39:28 12° SSW 06:40:43 10° S visible
27 Jan 3.5 05:41:40 15° S 05:41:40 15° S 05:42:51 10° SSE visible
